Change the Weather History Date:

Friday, October 14, 2011

  Actual Average Record
Temperature  
Mean Temperature 48 °F -  
Max Temperature 59 °F 52 °F 68 °F (1996)
Min Temperature 36 °F 42 °F 37 °F (2011)
Degree Days  
Heating Degree Days 18    
Moisture  
Dew Point 41 °F    
Average Humidity 79    
Maximum Humidity 100    
Minimum Humidity 44    
Precipitation  
Precipitation 0.00 in - - ()
Sea Level Pressure  
Sea Level Pressure 30.50 in    
Wind  
Wind Speed 4 mph ()    
Max Wind Speed 13 mph    
Max Gust Speed -    
Visibility 6.4 miles    
Events      
Averages and records for this station are not official NWS values.
T = Trace of Precipitation, MM = Missing Value Source: Averaged Metar Reports

Daily Weather History Graph

Daily Weather History Graph

Search for Another Location

Airport or City:

Trip Planner

Search our weather history database for the weather conditions in past years. The results will help you decide how hot, cold, wet, or windy it might be!

Date:

Astronomy

Oct. 14, 2011 Rise Set
Actual Time 8:04 AM CEST 6:51 PM CEST
Civil Twilight 7:30 AM CEST 7:25 PM CEST
Nautical Twilight 6:51 AM CEST 8:04 PM CEST
Astronomical Twilight 6:12 AM CEST 8:43 PM CEST
Moon 7:28 PM CEST (10/14) 10:43 AM CEST (10/14)
Length of Visible Light 11h 54m
Length of Day
10h 47m
Waning Gibbous, 95% of the Moon is Illuminated
Oct 14
Waning Gibbous
Oct 20
Last Quarter
Oct 26
New
Nov 2
First Quarter
Nov 10
Full

Hourly Weather History & Observations

Time (CEST) Temp. Windchill Dew Point Humidity Pressure Visibility Wind Dir Wind Speed Gust Speed Precip Events Conditions
12:25 AM 44.6 °F - 42.8 °F 93% 30.48 in 6.2 mi ENE 2.3 mph - N/A   Unknown
12:55 AM 42.8 °F - 41.0 °F 93% 30.51 in 6.2 mi NE 2.3 mph - N/A   Unknown
1:25 AM 41.0 °F - 41.0 °F 100% 30.51 in 6.2 mi NE 1.2 mph - N/A   Unknown
1:55 AM 41.0 °F - 41.0 °F 100% 30.51 in 6.2 mi NE 1.2 mph - N/A   Unknown
2:00 AM 41 °F - 40 °F 95% 30.51 in 10 mi North 2.2 mph - -  
2:25 AM 39.2 °F 37.0 °F 39.2 °F 100% 30.51 in 6.2 mi NNW 3.5 mph - N/A   Unknown
2:55 AM 41.0 °F - 41.0 °F 100% 30.51 in 6.2 mi North 1.2 mph - N/A   Unknown
3:25 AM 41.0 °F - 41.0 °F 100% 30.51 in 6.2 mi NNE 2.3 mph - N/A   Unknown
3:55 AM 41.0 °F - 41.0 °F 100% 30.48 in 4.3 mi Calm Calm - N/A   Unknown
4:25 AM 39.2 °F - 39.2 °F 100% 30.48 in - NNE 2.3 mph - N/A   Mist
4:55 AM 39.2 °F - 39.2 °F 100% 30.48 in 5.6 mi NNE 2.3 mph - N/A   Unknown
5:00 AM 38 °F - 38 °F 100% 30.51 in 6 mi NE 2.2 mph - -  
5:25 AM 37.4 °F - 37.4 °F 100% 30.51 in 5.0 mi NNE 2.3 mph - N/A   Unknown
5:55 AM 37.4 °F - 37.4 °F 100% 30.51 in 5.6 mi NE 1.2 mph - N/A   Unknown
6:25 AM 39.2 °F - 37.4 °F 93% 30.48 in 5.0 mi NE 1.2 mph - N/A   Unknown
6:55 AM 39.2 °F - 39.2 °F 100% 30.51 in 5.6 mi NE 2.3 mph - N/A   Unknown
7:25 AM 39.2 °F - 39.2 °F 100% 30.51 in 6.2 mi NE 2.3 mph - N/A   Unknown
7:55 AM 41.0 °F - 39.2 °F 93% 30.51 in 6.2 mi NE 2.3 mph - N/A   Unknown
8:00 AM 39 °F - 38 °F 97% 30.52 in 6 mi NNE 2.2 mph - -   Mist
8:25 AM 39.2 °F - 39.2 °F 100% 30.51 in 6.2 mi NE 2.3 mph - N/A   Unknown
8:55 AM 41.0 °F 39.0 °F 41.0 °F 100% 30.51 in 6.2 mi NE 3.5 mph - N/A   Unknown
9:25 AM 42.8 °F 41.1 °F 42.8 °F 100% 30.54 in 6.2 mi ENE 3.5 mph - N/A   Unknown
9:55 AM 46.4 °F 45.2 °F 44.6 °F 93% 30.54 in 6.2 mi East 3.5 mph - N/A   Unknown
10:25 AM 50.0 °F - 46.4 °F 87% 30.54 in 6.2 mi ESE 4.6 mph - N/A   Unknown
10:55 AM 51.8 °F - 44.6 °F 76% 30.54 in 6.2 mi ESE 4.6 mph - N/A   Unknown
11:00 AM 52 °F - 45 °F 69% 30.54 in 8 mi ESE 6.7 mph - -  
11:25 AM 53.6 °F - 44.6 °F 72% 30.54 in 6.2 mi East 5.8 mph - N/A   Unknown
11:55 AM 53.6 °F - 44.6 °F 72% 30.54 in 6.2 mi ESE 6.9 mph - N/A   Unknown
12:25 PM 55.4 °F - 44.6 °F 67% 30.54 in 6.2 mi ESE 9.2 mph - N/A   Unknown
12:55 PM 55.4 °F - 42.8 °F 63% 30.54 in 6.2 mi ESE 9.2 mph - N/A   Unknown
1:25 PM 57.2 °F - 41.0 °F 55% 30.51 in 6.2 mi ESE 9.2 mph - N/A   Unknown
1:55 PM 57.2 °F - 42.8 °F 59% 30.51 in 6.2 mi ESE 10.4 mph - N/A   Unknown
2:25 PM 57.2 °F - 41.0 °F 55% 30.51 in 6.2 mi ESE 11.5 mph - N/A   Unknown
2:55 PM 57.2 °F - 41.0 °F 55% 30.51 in 6.2 mi East 12.7 mph - N/A   Unknown
3:25 PM 57.2 °F - 41.0 °F 55% 30.48 in 6.2 mi East 11.5 mph - N/A   Unknown
3:55 PM 59.0 °F - 41.0 °F 51% 30.48 in 6.2 mi ESE 12.7 mph - N/A   Unknown
4:25 PM 57.2 °F - 41.0 °F 55% 30.48 in 6.2 mi East 11.5 mph - N/A   Unknown
4:55 PM 57.2 °F - 41.0 °F 55% 30.48 in 6.2 mi ESE 11.5 mph - N/A   Unknown
5:00 PM 57 °F - 41 °F 44% 30.48 in 19 mi East 11.2 mph - -  
5:25 PM 57.2 °F - 41.0 °F 55% 30.48 in 6.2 mi East 11.5 mph - N/A   Unknown
5:55 PM 55.4 °F - 39.2 °F 54% 30.48 in 6.2 mi East 10.4 mph - N/A   Unknown
6:25 PM 53.6 °F - 42.8 °F 67% 30.48 in 6.2 mi East 8.1 mph - N/A   Unknown
6:55 PM 53.6 °F - 42.8 °F 67% 30.45 in 6.2 mi East 9.2 mph - N/A   Unknown
7:25 PM 51.8 °F - 41.0 °F 67% 30.45 in 6.2 mi East 8.1 mph - N/A   Unknown
7:55 PM 50.0 °F - 41.0 °F 71% 30.45 in 6.2 mi East 6.9 mph - N/A   Unknown
8:25 PM 50.0 °F - 41.0 °F 71% 30.48 in 6.2 mi East 6.9 mph - N/A   Unknown
8:55 PM 50.0 °F - 39.2 °F 66% 30.48 in 6.2 mi East 6.9 mph - N/A   Unknown
9:25 PM 48.2 °F - 39.2 °F 71% 30.45 in 6.2 mi East 8.1 mph - N/A   Unknown
9:55 PM 48.2 °F - 37.4 °F 66% 30.45 in 6.2 mi East 6.9 mph - N/A   Unknown
10:25 PM 48.2 °F - 39.2 °F 71% 30.45 in 6.2 mi East 8.1 mph - N/A   Unknown
10:55 PM 46.4 °F 41.9 °F 39.2 °F 76% 30.45 in 6.2 mi East 9.2 mph - N/A   Unknown
11:00 PM 47 °F - 39 °F 65% 30.47 in 25 mi ESE 8.9 mph - -  
11:25 PM 46.4 °F 42.4 °F 39.2 °F 76% 30.45 in 6.2 mi East 8.1 mph - N/A   Unknown
11:55 PM 46.4 °F 42.4 °F 39.2 °F 76% 30.45 in 6.2 mi ESE 8.1 mph - N/A   Unknown